When you browse on this site, cookies collect data to enhance your experience and personalize the content and advertising you see.
Visit our Privacy Policy to learn more. By continuing to use the site, you agree to this use of cookies and data.
  • In Österreich
  • Länderverzeichnis
  • Für 7 Tage
  • Wassertemperatur
  • Satellitenkarten
  • Wetterkarte
  • News
  • Widgets
  • user-avatar
    Anmelden

    Stündliche Wetter Stratford

    Heute, 23 April, Dienstag

    Zeit Temperatur Niederschläge Wind Luftdruck Luftfeuchtigkeit
    00:00 +12°C° 0.1 mm 4 m/S 761 mmHg 90%
    01:00 +12°C° 0.1 mm 3 m/S 761 mmHg 91%
    02:00 +12°C° 0 mm 3 m/S 761 mmHg 90%
    03:00 +12°C° 0 mm 3 m/S 761 mmHg 90%
    04:00 +12°C° 0 mm 3 m/S 761 mmHg 89%
    05:00 +13°C° 0 mm 3 m/S 761 mmHg 88%
    06:00 +13°C° 0 mm 3 m/S 761 mmHg 86%
    07:00 +14°C° 0 mm 2 m/S 761 mmHg 84%
    08:00 +16°C° 0 mm 2 m/S 761 mmHg 78%
    09:00 +19°C° 0 mm 1 m/S 761 mmHg 71%
    10:00 +20°C° 0 mm 1 m/S 761 mmHg 64%
    11:00 +21°C° 0 mm 1 m/S 761 mmHg 63%
    12:00 +21°C° 0 mm 1 m/S 760 mmHg 62%
    13:00 +20°C° 0 mm 2 m/S 760 mmHg 61%
    14:00 +20°C° 0 mm 2 m/S 759 mmHg 61%
    15:00 +20°C° 0 mm 3 m/S 759 mmHg 60%
    16:00 +20°C° 0 mm 4 m/S 758 mmHg 59%
    17:00 +19°C° 0 mm 4 m/S 758 mmHg 65%
    18:00 +17°C° 0 mm 4 m/S 758 mmHg 71%
    19:00 +14°C° 0 mm 5 m/S 758 mmHg 77%
    20:00 +14°C° 0.2 mm 5 m/S 757 mmHg 79%
    21:00 +14°C° 0.2 mm 4 m/S 757 mmHg 82%
    22:00 +13°C° 0.2 mm 4 m/S 757 mmHg 84%
    23:00 +13°C° 0.1 mm 4 m/S 756 mmHg 83%

    Morgen, 24 April, Mittwoch

    Zeit Temperatur Niederschläge Wind Luftdruck Luftfeuchtigkeit
    00:00 +14°C° 0.1 mm 4 m/S 755 mmHg 82%
    01:00 +14°C° 0.1 mm 4 m/S 755 mmHg 81%
    02:00 +14°C° 0 mm 4 m/S 754 mmHg 82%
    03:00 +14°C° 0 mm 4 m/S 754 mmHg 84%
    04:00 +13°C° 0 mm 3 m/S 754 mmHg 85%
    05:00 +13°C° 0 mm 4 m/S 754 mmHg 78%
    06:00 +13°C° 0 mm 5 m/S 754 mmHg 71%
    07:00 +11°C° 0 mm 6 m/S 754 mmHg 64%
    08:00 +13°C° 0 mm 6 m/S 755 mmHg 60%
    09:00 +14°C° 0 mm 6 m/S 755 mmHg 55%
    10:00 +15°C° 0 mm 5 m/S 755 mmHg 51%
    11:00 +15°C° 0 mm 5 m/S 755 mmHg 49%
    12:00 +16°C° 0 mm 6 m/S 755 mmHg 47%
    13:00 +17°C° 0 mm 6 m/S 755 mmHg 45%
    14:00 +17°C° 0 mm 6 m/S 755 mmHg 46%
    15:00 +17°C° 0 mm 6 m/S 755 mmHg 46%
    16:00 +17°C° 0 mm 6 m/S 755 mmHg 46%
    17:00 +15°C° 0 mm 5 m/S 755 mmHg 51%
    18:00 +14°C° 0 mm 4 m/S 756 mmHg 55%
    19:00 +13°C° 0 mm 3 m/S 756 mmHg 60%
    20:00 +12°C° 0 mm 3 m/S 757 mmHg 63%
    21:00 +11°C° 0 mm 3 m/S 757 mmHg 65%
    22:00 +10°C° 0 mm 3 m/S 758 mmHg 68%
    23:00 +10°C° 0 mm 2 m/S 758 mmHg 69%

    übermorgen, 25 April, Donnerstag

    Zeit Temperatur Niederschläge Wind Luftdruck Luftfeuchtigkeit
    00:00 +9°C° 0 mm 2 m/S 758 mmHg 71%
    01:00 +9°C° 0 mm 2 m/S 759 mmHg 73%
    02:00 +8°C° 0 mm 2 m/S 759 mmHg 74%
    03:00 +8°C° 0 mm 2 m/S 759 mmHg 75%
    04:00 +8°C° 0 mm 2 m/S 759 mmHg 76%
    05:00 +8°C° 0 mm 2 m/S 759 mmHg 72%
    06:00 +10°C° 0 mm 1 m/S 759 mmHg 69%
    07:00 +11°C° 0 mm 1 m/S 760 mmHg 66%
    08:00 +13°C° 0 mm 2 m/S 760 mmHg 59%
    09:00 +15°C° 0 mm 2 m/S 760 mmHg 53%
    10:00 +16°C° 0 mm 2 m/S 760 mmHg 46%
    11:00 +18°C° 0 mm 2 m/S 759 mmHg 43%
    12:00 +19°C° 0 mm 2 m/S 759 mmHg 39%
    13:00 +20°C° 0 mm 2 m/S 758 mmHg 36%
    14:00 +20°C° 0 mm 2 m/S 758 mmHg 35%
    15:00 +20°C° 0 mm 3 m/S 758 mmHg 34%
    16:00 +21°C° 0 mm 3 m/S 757 mmHg 34%
    17:00 +19°C° 0 mm 4 m/S 757 mmHg 41%
    18:00 +17°C° 0 mm 4 m/S 758 mmHg 49%
    19:00 +14°C° 0 mm 4 m/S 758 mmHg 57%
    20:00 +13°C° 0 mm 4 m/S 758 mmHg 60%
    21:00 +13°C° 0 mm 3 m/S 758 mmHg 63%
    22:00 +13°C° 0 mm 3 m/S 758 mmHg 66%
    23:00 +12°C° 0 mm 3 m/S 757 mmHg 68%

    26 April, Freitag

    Zeit Temperatur Niederschläge Wind Luftdruck Luftfeuchtigkeit
    00:00 +12°C° 0 mm 3 m/S 757 mmHg 70%
    01:00 +12°C° 0 mm 3 m/S 757 mmHg 72%
    02:00 +12°C° 0.1 mm 3 m/S 756 mmHg 74%
    03:00 +12°C° 0.1 mm 3 m/S 755 mmHg 76%
    04:00 +12°C° 0.1 mm 3 m/S 754 mmHg 78%
    05:00 +12°C° 1.4 mm 3 m/S 754 mmHg 82%
    06:00 +12°C° 1.4 mm 4 m/S 753 mmHg 85%
    07:00 +12°C° 1.4 mm 4 m/S 752 mmHg 89%
    08:00 +13°C° 1.9 mm 4 m/S 751 mmHg 91%
    09:00 +13°C° 1.9 mm 4 m/S 750 mmHg 92%
    10:00 +14°C° 1.9 mm 4 m/S 749 mmHg 94%
    11:00 +15°C° 0.3 mm 4 m/S 748 mmHg 91%
    12:00 +16°C° 0.3 mm 5 m/S 747 mmHg 89%
    13:00 +17°C° 0.3 mm 5 m/S 746 mmHg 86%
    14:00 +16°C° 0.4 mm 6 m/S 747 mmHg 83%
    15:00 +14°C° 0.4 mm 7 m/S 747 mmHg 79%
    16:00 +12°C° 0.4 mm 8 m/S 747 mmHg 75%
    17:00 +12°C° 0 mm 7 m/S 749 mmHg 73%
    18:00 +12°C° 0 mm 7 m/S 750 mmHg 71%
    19:00 +13°C° 0 mm 6 m/S 751 mmHg 68%
    20:00 +13°C° 0 mm 6 m/S 752 mmHg 64%
    21:00 +11°C° 0 mm 7 m/S 753 mmHg 60%
    22:00 +10°C° 0 mm 7 m/S 753 mmHg 56%
    23:00 +9°C° 0 mm 7 m/S 754 mmHg 53%

    27 April, Samstag

    Zeit Temperatur Niederschläge Wind Luftdruck Luftfeuchtigkeit
    00:00 +8°C° 0 mm 7 m/S 755 mmHg 50%
    01:00 +6°C° 0 mm 7 m/S 755 mmHg 48%
    02:00 +6°C° 0 mm 7 m/S 756 mmHg 52%
    03:00 +6°C° 0 mm 7 m/S 757 mmHg 55%
    04:00 +6°C° 0 mm 7 m/S 757 mmHg 59%
    05:00 +6°C° 0 mm 7 m/S 758 mmHg 56%
    06:00 +6°C° 0 mm 8 m/S 758 mmHg 54%
    07:00 +7°C° 0 mm 8 m/S 759 mmHg 51%
    08:00 +9°C° 0 mm 7 m/S 759 mmHg 45%
    09:00 +10°C° 0 mm 7 m/S 760 mmHg 39%
    10:00 +11°C° 0 mm 7 m/S 760 mmHg 33%
    11:00 +12°C° 0 mm 7 m/S 760 mmHg 32%
    12:00 +14°C° 0 mm 7 m/S 760 mmHg 30%
    13:00 +15°C° 0 mm 7 m/S 760 mmHg 28%
    14:00 +15°C° 0 mm 6 m/S 760 mmHg 29%
    15:00 +15°C° 0 mm 6 m/S 760 mmHg 29%
    16:00 +15°C° 0 mm 5 m/S 760 mmHg 30%
    17:00 +14°C° 0 mm 4 m/S 761 mmHg 35%
    18:00 +13°C° 0 mm 4 m/S 761 mmHg 39%
    19:00 +12°C° 0 mm 3 m/S 762 mmHg 44%
    20:00 +13°C° 0 mm 2 m/S 762 mmHg 46%
    21:00 +12°C° 0 mm 1 m/S 763 mmHg 48%
    22:00 +11°C° 0 mm 0 m/S 763 mmHg 51%
    23:00 +12°C° 0 mm 1 m/S 763 mmHg 50%

    28 April, Sonntag

    Zeit Temperatur Niederschläge Wind Luftdruck Luftfeuchtigkeit
    00:00 +12°C° 0 mm 1 m/S 763 mmHg 48%
    01:00 +12°C° 0 mm 1 m/S 763 mmHg 47%
    02:00 +12°C° 0 mm 2 m/S 762 mmHg 50%
    03:00 +11°C° 0 mm 3 m/S 762 mmHg 53%
    04:00 +11°C° 0 mm 3 m/S 762 mmHg 55%
    05:00 +12°C° 0 mm 4 m/S 762 mmHg 55%
    06:00 +12°C° 0 mm 5 m/S 762 mmHg 55%
    07:00 +13°C° 0 mm 6 m/S 761 mmHg 54%
    08:00 +13°C° 0 mm 6 m/S 761 mmHg 54%
    09:00 +14°C° 0 mm 7 m/S 761 mmHg 54%
    10:00 +13°C° 0 mm 8 m/S 760 mmHg 53%
    11:00 +16°C° 0 mm 8 m/S 759 mmHg 52%
    12:00 +17°C° 0 mm 8 m/S 759 mmHg 50%
    13:00 +18°C° 0 mm 8 m/S 758 mmHg 49%
    14:00 +20°C° 0 mm 8 m/S 758 mmHg 51%
    15:00 +20°C° 0 mm 7 m/S 758 mmHg 54%
    16:00 +20°C° 0 mm 6 m/S 757 mmHg 56%
    17:00 +20°C° 0 mm 5 m/S 758 mmHg 60%
    18:00 +19°C° 0 mm 5 m/S 759 mmHg 64%
    19:00 +19°C° 0 mm 4 m/S 759 mmHg 68%
    20:00 +18°C° 0 mm 4 m/S 760 mmHg 63%
    21:00 +17°C° 0 mm 4 m/S 761 mmHg 59%
    22:00 +14°C° 0 mm 4 m/S 762 mmHg 54%
    23:00 +13°C° 0 mm 4 m/S 762 mmHg 59%
    Mehr zeigen